Location: American Canyon
(38.1966°N, 122.1514°W)
Time: 13:21:37
(UTC+00:00)

Cosmos 2098 Rocket - Pass Details

Date: 29 October 2020
Orbit: 366 x 1184 km, 82.9° (Epoch: 01 December)

Event Time Altitude Azimuth Distance (km) Brightness Sun altitude
Rises 13:58:08 0° 197° (SSW) 3,760 7.0 -7.3°
Reaches altitude 10° 14:00:59 10° 202° (SSW) 2,699 6.2 -6.8°
Maximum altitude 14:06:58 52° 278° (W) 1,017 3.8 -5.6°
Drops below altitude 10° 14:11:46 10° 355° (N) 2,174 5.7 -4.7°
Sets 14:13:53 0° 0° (N) 2,973 6.4 -4.3°
